Location: Vista Encantada
(35.1109°N, 106.5681°W)
Time: 09:22:06
(UTC+00:00)

Meteor 2-1 Rocket - Pass Details

Date: 29 October 2020
Orbit: 830 x 906 km, 81.3° (Epoch: 04 December)

Event Time Altitude Azimuth Distance (km) Brightness Sun altitude
Rises 12:39:50 0° 352° (N) 3,442 7.2 -9.9°
Reaches altitude 10° 12:42:14 10° 353° (N) 2,513 6.5 -9.4°
Maximum altitude 12:47:58 85° 82° (E) 886 4.4 -8.2°
Drops below altitude 10° 12:53:47 10° 171° (S) 2,548 7.0 -7.1°
Sets 12:56:15 0° 172° (S) 3,493 7.7 -6.6°
